Time,TemperatureF,DewpointF,PressureIn,WindDirection,WindDirectionDegrees,WindSpeedMPH,WindSpeedGustMPH,Humidity,HourlyPrecipIn,Conditions,Clouds,dailyrainin,SolarRadiationWatts/m^2,SoftwareType,DateUTC
2013-02-12 00:03:00,5.1,2.0,30.56,NNE,25,0.0,-999.0,88,-99.99,,,0.03,0,weatherlink.com 1.10,2013-02-12 07:03:00,
2013-02-12 00:18:00,5.3,3.0,30.56,NNE,25,0.0,-999.0,88,-99.99,,,0.00,0,weatherlink.com 1.10,2013-02-12 07:18:00,
2013-02-12 00:33:00,5.0,2.0,30.57,NNE,26,0.0,-999.0,87,-99.99,,,0.00,0,weatherlink.com 1.10,2013-02-12 07:33:00,
2013-02-12 00:48:00,5.1,2.0,30.58,NNE,20,0.0,-999.0,87,-99.99,,,0.00,0,weatherlink.com 1.10,2013-02-12 07:48:00,
2013-02-12 01:03:00,3.9,0.0,30.58,NNE,20,0.0,-999.0,85,-99.99,,,0.00,0,weatherlink.com 1.10,2013-02-12 08:03:00,
2013-02-12 01:18:00,3.2,0.0,30.58,NNE,20,0.0,-999.0,86,-99.99,,,0.00,0,weatherlink.com 1.10,2013-02-12 08:18:00,
2013-02-12 01:33:00,1.8,-2.0,30.58,NNE,20,0.0,-999.0,85,-99.99,,,0.00,0,weatherlink.com 1.10,2013-02-12 08:33:00,
2013-02-12 01:48:00,1.5,-2.0,30.59,NNE,20,0.0,-999.0,85,-99.99,,,0.00,0,weatherlink.com 1.10,2013-02-12 08:48:00,
2013-02-12 02:04:00,2.8,0.0,30.59,NNE,20,0.0,-999.0,87,-99.99,,,0.00,0,weatherlink.com 1.10,2013-02-12 09:04:00,
2013-02-12 02:18:00,3.2,0.0,30.59,NNE,20,0.0,-999.0,87,-99.99,,,0.00,0,weatherlink.com 1.10,2013-02-12 09:18:00,
2013-02-12 02:33:00,2.7,-1.0,30.61,NNE,20,0.0,-999.0,86,-99.99,,,0.00,0,weatherlink.com 1.10,2013-02-12 09:33:00,
2013-02-12 02:49:00,3.0,0.0,30.60,NNE,20,0.0,-999.0,87,-99.99,,,0.00,0,weatherlink.com 1.10,2013-02-12 09:49:00,
2013-02-12 03:04:00,3.2,0.0,30.60,NNE,20,0.0,-999.0,87,-99.99,,,0.00,0,weatherlink.com 1.10,2013-02-12 10:04:00,
2013-02-12 03:19:00,3.2,0.0,30.60,NNE,20,0.0,-999.0,86,-99.99,,,0.00,0,weatherlink.com 1.10,2013-02-12 10:19:00,
2013-02-12 03:34:00,3.5,0.0,30.60,NNE,20,0.0,-999.0,86,-99.99,,,0.00,0,weatherlink.com 1.10,2013-02-12 10:34:00,
2013-02-12 03:49:00,3.7,1.0,30.60,NNE,20,0.0,-999.0,86,-99.99,,,0.00,0,weatherlink.com 1.10,2013-02-12 10:49:00,
2013-02-12 04:04:00,3.3,0.0,30.61,NNE,20,0.0,-999.0,86,-99.99,,,0.00,0,weatherlink.com 1.10,2013-02-12 11:04:00,
2013-02-12 04:19:00,2.9,0.0,30.60,NNE,20,0.0,-999.0,86,-99.99,,,0.00,0,weatherlink.com 1.10,2013-02-12 11:19:00,
2013-02-12 04:34:00,2.9,0.0,30.60,NNE,20,0.0,-999.0,86,-99.99,,,0.00,0,weatherlink.com 1.10,2013-02-12 11:34:00,
2013-02-12 04:49:00,2.7,-1.0,30.61,NNE,20,0.0,-999.0,86,-99.99,,,0.00,0,weatherlink.com 1.10,2013-02-12 11:49:00,
2013-02-12 05:04:00,2.9,0.0,30.61,NNE,20,0.0,-999.0,86,-99.99,,,0.00,0,weatherlink.com 1.10,2013-02-12 12:04:00,
2013-02-12 05:19:00,3.1,0.0,30.61,NNE,20,0.0,-999.0,86,-99.99,,,0.00,0,weatherlink.com 1.10,2013-02-12 12:19:00,
2013-02-12 05:34:00,0.5,-4.0,30.61,NNE,20,0.0,-999.0,83,-99.99,,,0.00,0,weatherlink.com 1.10,2013-02-12 12:34:00,
2013-02-12 05:49:00,-1.8,-6.0,30.62,NNE,21,0.0,-999.0,83,-99.99,,,0.00,0,weatherlink.com 1.10,2013-02-12 12:49:00,
2013-02-12 06:04:00,-2.6,-7.0,30.61,NNE,24,0.0,-999.0,83,-99.99,,,0.00,0,weatherlink.com 1.10,2013-02-12 13:04:00,
2013-02-12 06:20:00,-3.2,-7.0,30.62,NNE,26,0.0,-999.0,84,-99.99,,,0.00,0,weatherlink.com 1.10,2013-02-12 13:20:00,
2013-02-12 06:35:00,-3.1,-7.0,30.63,NNE,33,0.0,-999.0,84,-99.99,,,0.00,0,weatherlink.com 1.10,2013-02-12 13:35:00,
2013-02-12 06:50:00,-3.7,-7.0,30.63,NE,34,0.0,-999.0,84,-99.99,,,0.00,0,weatherlink.com 1.10,2013-02-12 13:50:00,
2013-02-12 07:05:00,-3.9,-8.0,30.63,NE,34,0.0,-999.0,84,-99.99,,,0.00,0,weatherlink.com 1.10,2013-02-12 14:05:00,
2013-02-12 07:20:00,-3.7,-7.0,30.63,NE,34,0.0,-999.0,84,-99.99,,,0.00,7,weatherlink.com 1.10,2013-02-12 14:20:00,
2013-02-12 07:35:00,-0.7,-4.0,30.64,NE,34,0.0,-999.0,87,-99.99,,,0.00,32,weatherlink.com 1.10,2013-02-12 14:35:00,
2013-02-12 07:50:00,-1.1,-5.0,30.64,NE,34,0.0,-999.0,84,-99.99,,,0.00,37,weatherlink.com 1.10,2013-02-12 14:50:00,
2013-02-12 08:05:00,-2.2,-6.0,30.64,NE,34,0.0,-999.0,84,-99.99,,,0.00,62,weatherlink.com 1.10,2013-02-12 15:05:00,
2013-02-12 08:20:00,-1.1,-5.0,30.65,NNW,339,0.0,-999.0,85,-99.99,,,0.00,67,weatherlink.com 1.10,2013-02-12 15:20:00,
2013-02-12 08:35:00,-0.5,-4.0,30.65,NNW,339,0.0,-999.0,84,-99.99,,,0.00,163,weatherlink.com 1.10,2013-02-12 15:35:00,
2013-02-12 08:50:00,2.2,-1.0,30.66,NNW,342,0.0,-999.0,86,-99.99,,,0.00,234,weatherlink.com 1.10,2013-02-12 15:50:00,
2013-02-12 09:05:00,5.3,2.0,30.66,North,350,0.0,-999.0,86,-99.99,,,0.00,244,weatherlink.com 1.10,2013-02-12 16:05:00,
2013-02-12 09:21:00,6.4,3.0,30.67,North,355,0.0,-999.0,85,-99.99,,,0.00,327,weatherlink.com 1.10,2013-02-12 16:21:00,
2013-02-12 09:35:00,6.8,3.0,30.67,North,360,0.0,-999.0,84,-99.99,,,0.00,434,weatherlink.com 1.10,2013-02-12 16:35:00,
2013-02-12 09:51:00,9.1,5.0,30.67,North,355,0.0,-999.0,83,-99.99,,,0.00,155,weatherlink.com 1.10,2013-02-12 16:51:00,
2013-02-12 10:06:00,9.0,4.0,30.68,North,355,0.0,-999.0,81,-99.99,,,0.00,429,weatherlink.com 1.10,2013-02-12 17:06:00,
2013-02-12 10:21:00,11.6,7.0,30.68,North,360,0.0,-999.0,80,-99.99,,,0.00,457,weatherlink.com 1.10,2013-02-12 17:21:00,
2013-02-12 10:36:00,13.5,8.0,30.69,North,360,0.0,-999.0,77,-99.99,,,0.00,336,weatherlink.com 1.10,2013-02-12 17:36:00,
2013-02-12 10:51:00,13.9,7.0,30.69,North,360,0.0,-999.0,74,-99.99,,,0.00,527,weatherlink.com 1.10,2013-02-12 17:51:00,
2013-02-12 11:06:00,15.0,7.0,30.69,NW,325,0.0,-999.0,70,-99.99,,,0.00,439,weatherlink.com 1.10,2013-02-12 18:06:00,
2013-02-12 11:21:00,17.5,9.0,30.69,NW,325,0.0,-999.0,68,-99.99,,,0.00,605,weatherlink.com 1.10,2013-02-12 18:21:00,
2013-02-12 11:36:00,18.1,8.0,30.68,NNW,331,0.0,-999.0,65,-99.99,,,0.00,751,weatherlink.com 1.10,2013-02-12 18:36:00,
2013-02-12 11:51:00,19.5,9.0,30.68,NNW,329,2.0,-999.0,63,-99.99,,,0.00,536,weatherlink.com 1.10,2013-02-12 18:51:00,
2013-02-12 12:06:00,20.3,9.0,30.68,NNW,329,0.0,-999.0,62,-99.99,,,0.00,642,weatherlink.com 1.10,2013-02-12 19:06:00,
2013-02-12 12:36:00,19.8,9.0,30.66,NNW,329,0.0,-999.0,63,-99.99,,,0.01,299,weatherlink.com 1.10,2013-02-12 19:36:00,
2013-02-12 12:51:00,18.5,7.0,30.65,NNW,329,0.0,-999.0,62,-99.99,,,0.01,527,weatherlink.com 1.10,2013-02-12 19:51:00,
2013-02-12 13:07:00,18.6,8.0,30.65,NW,325,0.0,-999.0,64,-99.99,,,0.01,638,weatherlink.com 1.10,2013-02-12 20:07:00,
2013-02-12 13:22:00,20.1,10.0,30.65,NW,325,0.0,-999.0,64,-99.99,,,0.02,615,weatherlink.com 1.10,2013-02-12 20:22:00,
2013-02-12 13:37:00,21.6,8.0,30.64,NW,326,1.0,-999.0,57,-99.99,,,0.02,598,weatherlink.com 1.10,2013-02-12 20:37:00,
2013-02-12 13:52:00,21.7,9.0,30.64,North,11,0.0,-999.0,59,-99.99,,,0.02,580,weatherlink.com 1.10,2013-02-12 20:52:00,
2013-02-12 14:37:00,23.2,12.0,30.63,North,9,1.0,-999.0,62,-99.99,,,0.03,508,weatherlink.com 1.10,2013-02-12 21:37:00,
2013-02-12 14:52:00,22.8,10.0,30.63,NNE,26,3.0,-999.0,58,-99.99,,,0.03,452,weatherlink.com 1.10,2013-02-12 21:52:00,
2013-02-12 15:07:00,23.3,10.0,30.63,North,360,0.0,-999.0,58,-99.99,,,0.03,436,weatherlink.com 1.10,2013-02-12 22:07:00,
2013-02-12 15:22:00,23.3,10.0,30.62,North,5,0.0,-999.0,56,-99.99,,,0.03,381,weatherlink.com 1.10,2013-02-12 22:22:00,
2013-02-12 15:37:00,23.3,10.0,30.63,North,5,0.0,-999.0,57,-99.99,,,0.03,362,weatherlink.com 1.10,2013-02-12 22:37:00,
2013-02-12 15:52:00,24.9,10.0,30.63,North,5,0.0,-999.0,54,-99.99,,,0.03,318,weatherlink.com 1.10,2013-02-12 22:52:00,
2013-02-12 16:07:00,25.6,11.0,30.63,North,355,0.0,-999.0,54,-99.99,,,0.03,258,weatherlink.com 1.10,2013-02-12 23:07:00,
2013-02-12 16:23:00,23.5,10.0,30.62,North,355,0.0,-999.0,56,-99.99,,,0.03,204,weatherlink.com 1.10,2013-02-12 23:23:00,
2013-02-12 16:38:00,21.4,10.0,30.62,North,355,0.0,-999.0,61,-99.99,,,0.03,160,weatherlink.com 1.10,2013-02-12 23:38:00,
2013-02-12 16:53:00,21.7,10.0,30.62,North,355,0.0,-999.0,61,-99.99,,,0.03,100,weatherlink.com 1.10,2013-02-12 23:53:00,
2013-02-12 17:23:00,19.4,8.0,30.62,North,355,0.0,-999.0,62,-99.99,,,0.03,23,weatherlink.com 1.10,2013-02-13 00:23:00,
2013-02-12 17:38:00,18.3,8.0,30.61,North,355,0.0,-999.0,65,-99.99,,,0.03,5,weatherlink.com 1.10,2013-02-13 00:38:00,
2013-02-12 17:53:00,16.9,8.0,30.61,North,355,0.0,-999.0,67,-99.99,,,0.03,0,weatherlink.com 1.10,2013-02-13 00:53:00,
2013-02-12 18:08:00,14.5,7.0,30.61,North,355,0.0,-999.0,71,-99.99,,,0.03,0,weatherlink.com 1.10,2013-02-13 01:08:00,
2013-02-12 18:23:00,13.1,7.0,30.61,North,355,0.0,-999.0,75,-99.99,,,0.03,0,weatherlink.com 1.10,2013-02-13 01:23:00,
2013-02-12 18:38:00,13.7,8.0,30.61,North,355,0.0,-999.0,77,-99.99,,,0.03,0,weatherlink.com 1.10,2013-02-13 01:38:00,
2013-02-12 18:53:00,13.6,7.0,30.61,North,355,0.0,-999.0,76,-99.99,,,0.03,0,weatherlink.com 1.10,2013-02-13 01:53:00,
2013-02-12 19:08:00,13.5,8.0,30.62,North,355,0.0,-999.0,77,-99.99,,,0.03,0,weatherlink.com 1.10,2013-02-13 02:08:00,
2013-02-12 19:24:00,13.5,8.0,30.62,North,355,0.0,-999.0,78,-99.99,,,0.03,0,weatherlink.com 1.10,2013-02-13 02:24:00,
2013-02-12 19:38:00,13.4,7.0,30.62,North,355,0.0,-999.0,77,-99.99,,,0.03,0,weatherlink.com 1.10,2013-02-13 02:38:00,
2013-02-12 19:54:00,13.1,7.0,30.62,North,355,0.0,-999.0,78,-99.99,,,0.03,0,weatherlink.com 1.10,2013-02-13 02:54:00,
2013-02-12 20:09:00,12.8,7.0,30.62,North,355,0.0,-999.0,79,-99.99,,,0.03,0,weatherlink.com 1.10,2013-02-13 03:09:00,
2013-02-12 20:24:00,12.7,7.0,30.60,NNE,30,0.0,-999.0,79,-99.99,,,0.03,0,weatherlink.com 1.10,2013-02-13 03:24:00,
2013-02-12 20:39:00,12.7,7.0,30.61,NNE,30,0.0,-999.0,79,-99.99,,,0.03,0,weatherlink.com 1.10,2013-02-13 03:39:00,
2013-02-12 20:54:00,12.8,7.0,30.61,NE,42,0.0,-999.0,79,-99.99,,,0.03,0,weatherlink.com 1.10,2013-02-13 03:54:00,
2013-02-12 21:09:00,12.7,7.0,30.62,ESE,103,1.0,-999.0,79,-99.99,,,0.03,0,weatherlink.com 1.10,2013-02-13 04:09:00,
2013-02-12 21:24:00,11.5,6.0,30.62,ESE,103,0.0,-999.0,79,-99.99,,,0.03,0,weatherlink.com 1.10,2013-02-13 04:24:00,
2013-02-12 21:39:00,10.5,6.0,30.60,SSE,148,2.0,-999.0,81,-99.99,,,0.03,0,weatherlink.com 1.10,2013-02-13 04:39:00,
2013-02-12 21:54:00,9.6,5.0,30.61,SSE,159,0.0,-999.0,82,-99.99,,,0.03,0,weatherlink.com 1.10,2013-02-13 04:54:00,
2013-02-12 22:09:00,9.2,5.0,30.61,SSE,166,0.0,-999.0,83,-99.99,,,0.03,0,weatherlink.com 1.10,2013-02-13 05:09:00,
2013-02-12 22:24:00,9.0,5.0,30.61,SSE,164,0.0,-999.0,84,-99.99,,,0.03,0,weatherlink.com 1.10,2013-02-13 05:24:00,
2013-02-12 22:39:00,9.3,6.0,30.61,SSW,198,0.0,-999.0,85,-99.99,,,0.03,0,weatherlink.com 1.10,2013-02-13 05:39:00,
2013-02-12 22:55:00,9.3,6.0,30.60,ENE,73,0.0,-999.0,85,-99.99,,,0.03,0,weatherlink.com 1.10,2013-02-13 05:55:00,
2013-02-12 23:09:00,8.4,5.0,30.59,ENE,73,0.0,-999.0,85,-99.99,,,0.03,0,weatherlink.com 1.10,2013-02-13 06:09:00,
2013-02-12 23:25:00,8.9,6.0,30.58,ENE,73,0.0,-999.0,87,-99.99,,,0.03,0,weatherlink.com 1.10,2013-02-13 06:25:00,
2013-02-12 23:40:00,10.1,7.0,30.58,South,185,0.0,-999.0,87,-99.99,,,0.03,0,weatherlink.com 1.10,2013-02-13 06:40:00,
2013-02-12 23:55:00,9.8,7.0,30.58,South,184,0.0,-999.0,86,-99.99,,,0.03,0,weatherlink.com 1.10,2013-02-13 06:55:00,